Wind_Speed
18 17 14 9 6 4 2 1 2 3 6 8 8 8 9 10 12 13 14 14 15 16 16 15 15 16 15 15 15 15 14 14 13 11 11 10 10 10 9 9 8 8 7 6
19 17 14 11 7 6 4 1 1 3 5 7 7 7 8 8 10 11 12 13 13 14 14 14 14 14 15 14 14 14 14 14 14 13 11 11 10 9 9 9 9 8 7 6
19 17 16 14 10 8 5 4 3 5 7 8 7 5 6 6 7 9 11 11 11 12 13 12 12 13 14 14 14 13 14 14 14 13 13 12 11 9 9 9 9 9 8 7
20 18 18 16 13 10 7 6 7 9 10 8 7 8 7 5 6 7 8 8 9 11 11 11 10 11 13 13 13 13 13 14 14 13 13 13 13 11 10 9 10 9 9 8
21 20 19 17 14 12 10 9 9 10 10 11 10 10 8 4 5 5 6 6 8 9 10 10 9 10 12 12 12 12 13 13 13 13 13 13 13 12 11 10 10 9 9 9
23 21 20 18 16 15 12 11 12 13 13 13 12 11 10 7 5 3 4 4 5 7 9 9 10 10 11 11 11 11 12 12 12 12 12 12 12 12 11 10 10 10 10 9
24 23 20 19 18 17 15 15 15 15 15 13 13 12 10 8 5 3 2 2 3 4 6 7 8 8 9 9 9 10 10 10 11 11 11 11 11 11 10 10 9 9 10 10
26 24 21 20 19 17 17 16 16 15 15 14 15 12 9 8 6 4 2 2 1 3 5 6 6 6 7 7 8 8 9 9 9 9 10 10 10 10 10 10 9 9 9 10
26 24 22 21 19 17 18 18 16 16 15 15 15 13 10 8 7 5 2 2 1 2 3 4 4 4 4 5 6 7 7 7 8 8 8 8 9 9 10 10 10 10 10 10
26 25 23 22 21 19 18 18 18 17 16 15 15 14 10 8 8 6 3 3 2 1 1 1 2 2 3 4 5 5 5 6 6 6 7 7 8 8 8 9 10 10 11 12
26 26 24 24 25 21 19 19 20 18 17 16 15 14 11 9 8 6 5 4 2 1 1 1 1 1 2 2 3 3 4 5 6 6 7 8 8 8 8 9 9 10 11 12
28 27 26 26 25 23 20 20 20 20 19 18 17 15 12 11 10 7 6 5 4 3 3 3 2 2 3 2 2 3 4 5 5 6 6 7 7 8 8 9 10 11 12 13
29 29 27 26 26 25 24 21 20 20 21 20 19 17 15 13 12 9 8 8 7 6 7 5 3 2 3 3 3 4 4 5 6 6 6 7 8 8 9 10 11 11 12 13
28 29 29 28 27 27 26 25 24 23 23 22 21 19 17 16 14 12 12 11 10 9 9 7 6 5 5 5 5 4 6 6 7 7 7 8 9 10 11 12 12 13 14 14
28 30 29 29 29 29 28 27 26 25 24 24 23 21 20 19 16 16 15 14 13 13 11 10 9 8 8 7 7 7 7 8 9 9 9 9 9 11 13 14 14 15 15 15
29 30 30 30 31 31 30 28 28 27 26 25 25 25 24 22 21 21 20 18 16 15 15 15 14 13 11 11 11 10 10 11 11 12 12 11 12 12 13 15 15 16 16 16
31 31 31 31 32 32 32 31 30 29 28 28 28 27 25 24 22 23 22 21 20 19 18 17 16 16 15 14 14 14 14 14 14 14 15 15 14 15 15 16 16 16 17 18
31 31 31 31 32 33 31 31 32 32 30 30 30 29 28 25 25 23 23 21 21 19 18 18 18 18 18 17 18 18 18 18 18 18 18 18 17 17 17 18 18 18 19 19
32 31 31 31 32 33 32 32 32 33 32 32 31 30 27 26 27 26 24 23 22 20 19 19 20 21 21 21 21 21 22 21 21 21 20 20 20 20 20 21 20 20 21 21
34 34 33 32 32 32 32 32 32 32 32 32 31 29 28 27 28 27 26 25 24 23 22 22 22 22 23 23 24 24 24 24 24 24 24 23 23 23 23 23 23 23 23 24
33 34 34 33 33 33 32 31 30 31 31 29 30 30 29 29 28 27 28 28 28 26 26 26 25 25 26 26 26 26 26 26 27 27 27 27 27 26 26 26 25 25 26 27
31 32 33 33 34 33 32 32 31 31 30 30 30 29 29 29 29 29 30 29 29 29 29 29 28 28 29 29 28 28 29 29 29 30 30 29 29 28 29 29 29 28 28 29
30 31 32 32 32 32 32 32 32 33 33 33 32 32 31 31 32 32 33 33 32 31 31 32 31 30 30 31 31 31 31 31 31 31 32 32 31 31 31 32 31 31 30 30
31 31 32 32 31 32 32 32 33 34 34 34 35 35 33 33 34 35 34 34 33 33 33 33 33 33 32 32 32 33 33 33 33 33 33 33 33 32 33 33 32 32 32 32
32 32 32 32 31 31 31 31 32 32 32 34 35 35 35 36 36 36 35 35 34 33 33 34 35 34 34 34 34 34 34 33 33 33 33 33 34 34 34 33 33 34 34 34
32 32 32 32 31 31 31 32 32 32 32 34 35 35 36 37 37 36 37 36 36 35 35 36 36 36 36 36 35 35 35 34 34 33 33 34 34 34 34 34 35 36 35 35
Wind_Direction
195 195 187 176 163 164 199 243 14 31 10 3 7 19 29 36 38 39 37 36 38 43 43 44 48 50 52 53 55 57 58 59 60 61 63 65 66 66 67 68 70 73 77 83
200 198 191 187 189 198 203 207 301 325 332 343 345 357 12 28 34 38 40 38 37 39 41 42 45 48 50 51 54 57 59 59 60 61 61 61 62 63 64 65 64 64 66 70
205 197 195 197 199 203 221 248 267 290 300 311 316 334 357 17 23 31 39 39 40 41 40 40 45 51 51 52 53 56 57 58 58 60 59 60 60 60 60 60 59 58 61 60
205 198 200 201 200 207 224 234 245 272 284 295 312 322 337 1 12 18 31 37 42 43 40 44 48 51 54 53 54 56 57 56 56 59 61 60 57 58 59 56 54 56 58 54
205 202 205 208 206 214 225 233 243 256 266 278 292 296 305 327 358 6 25 35 38 42 44 49 56 57 55 52 53 55 56 57 58 59 58 58 56 56 56 55 54 52 51 47
208 207 213 215 213 211 216 227 238 243 253 263 276 284 295 300 321 340 9 36 34 42 50 51 55 59 56 53 50 51 56 58 59 58 56 56 54 53 52 52 51 51 48 42
210 211 216 218 217 212 213 225 234 238 245 262 273 281 287 283 293 297 332 12 26 41 51 46 46 56 57 55 50 51 54 55 57 57 55 52 51 48 45 43 44 43 40 34
213 213 215 219 220 215 215 225 234 241 245 262 278 284 288 281 277 262 309 342 36 52 57 51 52 56 57 54 48 47 49 50 52 52 51 49 46 42 38 38 35 32 27 23
217 215 215 217 217 220 218 226 237 243 245 260 271 286 287 284 274 266 277 288 279 72 63 51 50 53 51 49 48 44 42 42 42 43 43 42 38 36 34 31 27 24 19 14
221 218 214 214 216 219 221 224 232 237 246 256 265 281 281 272 282 285 270 283 279 129 70 30 39 34 25 44 54 44 34 33 33 33 34 31 29 26 25 22 19 15 11 7
221 220 215 216 217 221 221 224 231 238 248 257 264 268 267 260 272 281 269 269 256 199 268 299 284 324 354 32 56 45 21 19 19 16 18 19 18 16 13 11 8 5 2 360
219 221 218 218 219 220 223 228 233 237 245 251 260 266 266 264 271 274 279 283 258 261 278 289 342 335 337 348 360 6 7 5 4 358 360 3 358 357 357 356 355 353 351 350
218 221 220 217 219 219 223 228 235 239 243 250 253 261 267 269 269 270 274 277 273 268 263 270 284 301 305 313 323 337 342 342 342 339 340 339 340 340 342 343 342 342 341 340
221 224 223 220 220 222 226 228 232 236 241 246 250 255 262 269 270 267 272 275 277 277 263 268 276 280 278 280 289 308 315 319 324 325 322 321 323 326 329 330 332 332 333 334
225 226 225 225 224 224 227 229 233 237 240 244 246 251 257 263 265 266 272 270 269 267 270 271 270 269 276 277 279 284 292 299 306 309 309 312 313 317 321 323 324 325 328 330
227 228 227 227 228 227 229 232 235 237 241 243 246 249 252 258 261 263 267 269 269 269 273 274 275 270 271 276 279 281 283 285 290 297 301 303 310 314 316 318 322 323 323 324
229 230 230 229 228 228 229 231 235 238 240 244 247 250 251 252 258 263 266 263 267 271 274 272 271 275 271 273 276 280 280 281 283 288 294 300 304 307 308 310 313 316 317 316
233 233 233 231 230 231 230 232 235 237 240 245 249 251 252 254 259 261 266 265 267 272 270 264 269 272 271 271 273 276 275 277 280 282 287 290 292 297 300 302 305 306 308 308
234 235 234 233 233 233 230 233 236 238 240 245 250 251 253 254 257 258 261 262 262 263 264 265 265 266 268 270 272 273 273 274 277 279 281 285 287 291 293 295 300 301 303 305
234 235 236 235 235 234 230 234 239 242 243 245 248 251 254 255 258 260 262 261 262 262 263 265 264 264 265 268 271 272 273 274 275 278 280 279 283 287 289 291 294 297 299 302
234 236 236 237 237 237 234 235 241 244 246 247 249 252 255 257 261 265 265 265 266 266 265 264 263 264 265 268 270 271 271 272 273 275 277 277 279 282 285 287 289 292 295 297
233 235 237 237 239 239 238 239 241 245 249 249 250 251 254 258 262 265 266 268 269 268 267 266 264 264 266 267 269 270 270 270 272 273 275 277 277 279 281 283 286 288 291 294
235 236 237 238 241 242 241 241 243 245 247 249 251 252 254 257 260 264 267 269 269 268 265 263 263 265 265 267 269 269 270 269 270 273 275 276 276 277 279 281 284 286 288 291
236 237 238 239 241 243 244 245 246 247 247 249 253 255 258 260 261 262 263 265 265 265 264 263 264 264 265 267 269 269 270 271 271 272 275 276 276 278 280 281 283 285 286 288
236 237 238 240 243 244 246 250 251 251 251 252 253 256 260 261 262 262 262 262 262 263 263 263 264 265 266 267 269 269 271 272 273 274 274 275 277 279 280 280 282 283 283 285
236 238 240 242 244 247 250 252 254 255 255 255 255 256 260 263 265 265 264 263 263 264 265 265 266 266 267 268 269 270 270 272 274 275 276 277 278 279 279 280 281 283 284 286
Height
5928 5931 5932 5933 5935 5935 5935 5935 5935 5935 5934 5934 5933 5933 5932 5930 5928 5927 5925 5923 5921 5919 5917 5914 5912 5910 5908 5907 5905 5903 5901 5900 5898 5897 5897 5896 5895 5894 5893 5893 5892 5891 5891 5890
5926 5929 5931 5932 5933 5934 5934 5934 5934 5934 5934 5934 5934 5933 5932 5930 5929 5927 5926 5924 5923 5921 5919 5916 5914 5912 5910 5909 5907 5906 5904 5902 5900 5899 5898 5898 5897 5896 5895 5894 5893 5892 5892 5891
5924 5928 5929 5930 5931 5932 5933 5934 5934 5934 5933 5933 5933 5932 5931 5929 5928 5927 5926 5925 5924 5922 5920 5918 5916 5914 5912 5911 5909 5908 5906 5905 5903 5901 5900 5899 5898 5897 5896 5895 5895 5894 5893 5892
5921 5924 5926 5928 5929 5930 5931 5933 5933 5933 5932 5931 5932 5931 5931 5929 5928 5928 5927 5925 5924 5922 5920 5918 5917 5915 5913 5912 5911 5910 5908 5906 5905 5904 5902 5901 5900 5898 5898 5897 5896 5895 5894 5893
5918 5921 5923 5925 5927 5928 5929 5931 5931 5931 5931 5931 5930 5931 5931 5929 5928 5928 5927 5926 5924 5923 5921 5918 5917 5916 5915 5913 5913 5911 5910 5908 5907 5906 5904 5903 5902 5900 5899 5898 5897 5896 5895 5894
5915 5918 5920 5922 5924 5925 5927 5929 5930 5930 5930 5930 5929 5930 5930 5929 5927 5927 5926 5924 5924 5923 5921 5920 5918 5917 5916 5915 5914 5913 5911 5910 5908 5907 5906 5905 5903 5902 5901 5899 5898 5897 5896 5894
5911 5914 5916 5919 5921 5923 5925 5927 5928 5928 5927 5927 5927 5927 5928 5927 5926 5925 5924 5924 5924 5923 5922 5920 5919 5918 5917 5916 5915 5914 5912 5911 5910 5908 5907 5906 5905 5903 5902 5900 5899 5898 5896 5895
5906 5910 5913 5915 5918 5920 5922 5923 5925 5925 5925 5925 5925 5924 5926 5924 5923 5923 5922 5922 5923 5922 5921 5920 5920 5919 5918 5917 5916 5914 5913 5911 5910 5909 5908 5907 5906 5904 5903 5901 5900 5898 5897 5895
5902 5906 5909 5912 5914 5917 5918 5920 5921 5922 5922 5922 5922 5922 5922 5921 5920 5921 5920 5920 5921 5921 5921 5920 5920 5919 5918 5916 5915 5915 5913 5912 5911 5910 5908 5907 5906 5904 5903 5902 5900 5899 5897 5895
5897 5901 5905 5908 5911 5913 5914 5916 5918 5919 5919 5919 5918 5918 5919 5919 5919 5919 5918 5918 5918 5919 5919 5919 5918 5918 5918 5916 5915 5914 5913 5912 5911 5909 5908 5907 5905 5904 5903 5902 5900 5898 5897 5894
5892 5896 5900 5903 5905 5908 5910 5912 5913 5914 5916 5916 5915 5917 5916 5916 5917 5916 5915 5916 5916 5917 5918 5917 5917 5917 5917 5915 5914 5913 5913 5912 5910 5909 5907 5906 5905 5904 5903 5901 5900 5898 5896 5894
5887 5891 5894 5898 5901 5903 5906 5907 5909 5911 5911 5912 5912 5915 5913 5913 5913 5913 5913 5913 5914 5915 5916 5915 5915 5915 5915 5915 5914 5912 5912 5911 5909 5908 5907 5906 5905 5903 5902 5900 5898 5897 5894 5892
5881 5885 5889 5893 5898 5899 5900 5903 5905 5906 5907 5908 5908 5912 5909 5910 5911 5911 5912 5913 5912 5913 5913 5913 5913 5913 5913 5913 5913 5911 5910 5910 5908 5907 5906 5905 5903 5902 5900 5899 5897 5895 5893 5891
5877 5880 5884 5888 5891 5893 5895 5897 5899 5901 5902 5903 5904 5906 5906 5907 5907 5908 5909 5910 5909 5910 5910 5910 5911 5910 5911 5911 5910 5910 5909 5908 5907 5906 5904 5903 5901 5900 5898 5897 5895 5893 5891 5888
5871 5874 5878 5882 5885 5887 5889 5892 5894 5896 5897 5898 5900 5901 5902 5902 5903 5904 5905 5906 5906 5907 5907 5907 5908 5908 5908 5908 5907 5907 5907 5906 5905 5904 5902 5900 5899 5897 5896 5894 5892 5890 5888 5886
5865 5868 5872 5876 5878 5881 5884 5886 5888 5890 5892 5893 5895 5896 5897 5898 5899 5900 5901 5902 5902 5903 5903 5904 5905 5905 5904 5904 5904 5904 5904 5903 5902 5901 5899 5898 5896 5895 5893 5891 5889 5887 5885 5883
5859 5863 5866 5869 5872 5875 5878 5881 5883 5884 5885 5887 5889 5891 5892 5893 5894 5895 5896 5896 5896 5897 5898 5899 5899 5899 5900 5900 5900 5900 5899 5899 5898 5897 5896 5894 5892 5891 5890 5888 5886 5884 5881 5879
5854 5857 5860 5863 5866 5869 5875 5875 5876 5878 5880 5881 5883 5884 5886 5887 5888 5889 5890 5891 5891 5892 5892 5892 5893 5894 5895 5895 5895 5895 5895 5895 5894 5893 5892 5890 5888 5887 5886 5884 5882 5880 5877 5874
5847 5850 5853 5856 5859 5862 5866 5867 5869 5871 5873 5875 5876 5877 5879 5880 5882 5883 5884 5884 5885 5885 5887 5887 5888 5889 5889 5889 5889 5889 5889 5889 5888 5887 5886 5884 5883 5882 5880 5879 5877 5875 5872 5869
5839 5842 5846 5849 5852 5855 5860 5861 5862 5865 5865 5868 5869 5871 5872 5874 5874 5877 5877 5878 5878 5878 5879 5880 5881 5882 5882 5883 5882 5883 5883 5882 5882 5881 5879 5878 5877 5876 5874 5873 5871 5869 5866 5863
5832 5834 5838 5841 5844 5847 5852 5854 5855 5858 5859 5861 5862 5864 5865 5866 5868 5869 5869 5869 5870 5870 5871 5871 5872 5874 5875 5875 5876 5876 5875 5875 5875 5874 5873 5872 5870 5869 5868 5866 5864 5862 5860 5857
5824 5827 5830 5833 5837 5842 5844 5846 5848 5849 5851 5853 5855 5856 5858 5859 5860 5861 5861 5861 5860 5861 5863 5864 5864 5866 5866 5867 5868 5868 5867 5867 5867 5866 5865 5864 5862 5861 5860 5858 5857 5855 5853 5850
5817 5821 5824 5827 5831 5833 5835 5838 5840 5842 5843 5845 5847 5848 5850 5852 5852 5853 5853 5853 5852 5852 5853 5855 5856 5857 5858 5858 5858 5859 5858 5857 5857 5857 5856 5855 5854 5852 5851 5850 5848 5846 5844 5842
5811 5814 5817 5819 5822 5824 5827 5829 5831 5833 5835 5837 5838 5839 5841 5842 5843 5843 5844 5844 5843 5843 5844 5845 5846 5847 5848 5849 5849 5849 5849 5849 5849 5848 5847 5846 5845 5844 5842 5840 5839 5837 5835 5833
5804 5806 5809 5812 5815 5817 5820 5822 5823 5825 5826 5827 5829 5830 5830 5831 5832 5833 5833 5833 5833 5834 5834 5835 5837 5837 5838 5839 5839 5839 5839 5839 5839 5838 5837 5837 5836 5834 5833 5831 5829 5828 5826 5824
5797 5800 5803 5805 5807 5810 5812 5813 5815 5816 5818 5818 5819 5820 5820 5820 5821 5822 5822 5822 5823 5823 5823 5825 5826 5827 5828 5828 5829 5829 5829 5829 5829 5828 5828 5827 5826 5825 5823 5821 5820 5818 5816 5814